Overview Statistics Trail Chart Weather Telemetry Raw packets
 

This is the latest recevied weather packets stored in our database for station/object 4S6DRJ-13. If no packets are shown the sender has not sent any weather packets the latest 10 day(s).

<< 434 435 436 437 438 439 440 >>
Time Temp. Humidity Pressure Rain* Wind** Luminosity Snow
1787798571 28.89° C 81% 1011 hPa 0 mm 0.89 m/s, 92° 223 W/m² -
1787798510 28.89° C 81% 1010.7 hPa 0 mm 0.89 m/s, 237° 232 W/m² -
1787798448 28.89° C 81% 1011 hPa 0 mm 0.89 m/s, 283° 223 W/m² -
1787798387 28.89° C 81% 1010.8 hPa 0 mm 0.89 m/s, 250° 225 W/m² -
1787798326 28.89° C 81% 1011.1 hPa 0 mm 1.79 m/s, 214° 250 W/m² -
1787798265 28.89° C 81% 1010.9 hPa 0 mm 1.79 m/s, 226° 498 W/m² -
1787798205 28.89° C 81% 1011 hPa 0 mm 2.68 m/s, 352° 366 W/m² -
1787798143 28.89° C 81% 1010.9 hPa 0 mm 0.45 m/s, 245° 280 W/m² -
1787798082 28.89° C 81% 1010.9 hPa 0 mm 1.34 m/s, 285° 214 W/m² -
1787798021 28.89° C 81% 1010.8 hPa 0 mm 1.79 m/s, 233° 329 W/m² -
1787797960 28.89° C 81% 1010.9 hPa 0 mm 1.79 m/s, 212° 246 W/m² -
1787797899 28.89° C 81% 1010.9 hPa 0 mm 2.24 m/s, 270° 373 W/m² -
1787797838 28.89° C 81% 1010.8 hPa 0 mm 1.34 m/s, 230° 213 W/m² -
1787797777 28.89° C 81% 1011 hPa 0 mm 1.34 m/s, 265° 387 W/m² -
1787797716 28.89° C 81% 1010.9 hPa 0 mm 1.79 m/s, 208° 186 W/m² -
1787797655 28.89° C 81% 1010.9 hPa 0 mm 0.89 m/s, 192° 205 W/m² -
1787797594 28.89° C 81% 1010.7 hPa 0 mm 1.79 m/s, 247° 240 W/m² -
1787797533 28.89° C 82% 1010.8 hPa 0 mm 1.34 m/s, 322° 281 W/m² -
1787797472 28.89° C 82% 1010.9 hPa 0 mm 1.34 m/s, 210° 323 W/m² -
1787797411 28.33° C 83% 1010.8 hPa 0 mm 0.89 m/s, 356° 288 W/m² -
1787797349 28.33° C 84% 1010.7 hPa 0 mm 0.45 m/s, 218° 308 W/m² -
1787797289 28.33° C 83% 1010.7 hPa 0 mm 1.34 m/s, 236° 283 W/m² -
1787797228 28.33° C 84% 1010.8 hPa 0 mm 0.45 m/s, 203° 270 W/m² -
1787797168 28.33° C 84% 1010.8 hPa 0 mm 0.89 m/s, 222° 178 W/m² -
1787797106 28.33° C 83% 1010.7 hPa 0 mm 0.89 m/s, 297° 252 W/m² -

* Rain latest hour (hover to see other rain measurements)
** Current wind speed in m/s (hover to see current wind gust speed)